This is the latest recevied weather packets stored in our database for station/object KB3KBR-WX. If no packets are shown the sender has not sent any weather packets the latest 10 day(s).
| Time | Temp. | Humidity | Pressure | Rain* | Wind** | Luminosity | Snow |
|---|---|---|---|---|---|---|---|
| 1788047461 | 20° C | 73% | 1019.2 hPa | 0 mm | - | - | - |
| 1788047162 | 20° C | 74% | 1019.2 hPa | 0 mm | - | - | - |
| 1788046531 | 20.56° C | 74% | 1019.3 hPa | 0 mm | - | - | - |
| 1788046231 | 20.56° C | 72% | 1019.2 hPa | 0 mm | - | - | - |
| 1788045901 | 21.11° C | 72% | 1019.2 hPa | 0 mm | - | - | - |
| 1788045615 | 21.11° C | 70% | 1019.3 hPa | 0 mm | - | - | - |
| 1788045571 | 21.11° C | 70% | 1019.3 hPa | 0 mm | - | - | - |
| 1788045320 | 21.67° C | 70% | 1019.4 hPa | 0 mm | - | - | - |
| 1788045271 | 21.67° C | 70% | 1019.4 hPa | 0 mm | - | - | - |
| 1788044971 | 21.67° C | 69% | 1019.5 hPa | 0 mm | - | - | - |
| 1788044642 | 22.22° C | 68% | 1019.6 hPa | 0 mm | - | - | - |
| 1788044312 | 22.22° C | 68% | 1019.6 hPa | 0 mm | - | - | - |
| 1788044049 | 22.22° C | 68% | 1019.7 hPa | 0 mm | - | - | - |
| 1788044011 | 22.22° C | 68% | 1019.7 hPa | 0 mm | - | - | - |
| 1788043681 | 22.78° C | 66% | 1019.8 hPa | 0 mm | - | - | - |
| 1788043351 | 23.33° C | 65% | 1019.7 hPa | 0 mm | - | - | - |
| 1788043022 | 23.89° C | 60% | 1019.8 hPa | 0 mm | - | - | - |
| 1788042691 | 24.44° C | 58% | 1019.9 hPa | 0 mm | - | - | - |
| 1788042361 | 24.44° C | 55% | 1019.8 hPa | 0 mm | - | - | - |
| 1788042061 | 24.44° C | 55% | 1019.8 hPa | 0 mm | - | - | - |
| 1788041732 | 24.44° C | 54% | 1019.9 hPa | 0 mm | - | - | - |
| 1788041401 | 24.44° C | 54% | 1019.9 hPa | 0 mm | - | - | - |
| 1788041071 | 24.44° C | 55% | 1019.9 hPa | 0 mm | - | - | - |
| 1788040771 | 24.44° C | 54% | 1019.7 hPa | 0 mm | - | - | - |
| 1788040441 | 24.44° C | 53% | 1019.7 hPa | 0 mm | - | - | - |
* Rain latest hour (hover to see other rain measurements)
** Current wind speed in m/s (hover to see current wind gust speed)